Location: Aufkirchen
(47.9603°N, 11.3653°E)
Time: 10:27:20
(UTC+01:00)

Tiros 1 - Pass Details

Date: 04 December 2020
Orbit: 630 x 663 km, 48.4° (Epoch: 21 January)

Event Time Altitude Azimuth Distance (km) Brightness Sun altitude
Rises 13:14:50 0° 217° (SW) 2,979 11.9 18.0°
Reaches altitude 10° 13:17:22 10° 207° (SSW) 2,072 12.0 17.8°
Maximum altitude 13:21:34 31° 146° (SE) 1,156 9.2 17.6°
Drops below altitude 10° 13:25:47 10° 84° (E) 2,080 9.6 17.4°
Sets 13:28:20 0° 75° (ENE) 2,993 10.2 17.3°
